Location: El Ajo
(40.9659°N, 5.0805°W)
Time: 11:22:19
(UTC+00:00)

Daily predictions for brighter satellites

Satellite Brightness Start Highest point End
(mag) Time Altitude Azimuth Time Altitude Azimuth Time Altitude Azimuth
PSLV R/B 3.9 19:29:56 10° S 19:33:58 67° WSW 19:38:06 10° NNW
Cosmos 1733 Rocket 3.6 19:30:13 10° SSE 19:34:13 36° E 19:38:16 10° NNE
Terra 3.4 19:33:14 10° ESE 19:36:23 18° ENE 19:39:33 10° NNE
SJ-6B 2.6 19:33:00 10° SSE 19:36:38 88° ENE 19:40:15 10° NNW
BREEZE-M DEB (TANK) 3.9 19:35:35 10° NW 19:37:37 20° NNE 19:40:41 10° ENE
Cosmos 2242 Rocket 4.4 19:33:51 10° NNE 19:37:53 33° ENE 19:41:50 10° SE
Gblst 52 Del rocket 4.4 19:33:35 10° SW 19:39:19 90° S 19:45:51 10° NE
Resurs 01 Rocket 2.6 19:36:18 10° S 19:40:32 49° W 19:44:47 10° NNW
Cosmos 1821 Rocket 4.3 19:34:50 10° SSE 19:40:44 45° E 19:46:43 10° NNE
Cosmos 2237 Rocket 2.4 19:35:40 10° SSW 19:41:20 82° WNW 19:47:05 10° NNE
Meteor 2-15 4.5 19:36:39 10° S 19:42:35 60° E 19:48:35 10° NNE
Cosmos 1980 4.0 19:37:42 10° SSW 19:43:19 73° WNW 19:48:59 10° NNE
Cosmos 2218 Rocket 3.9 19:40:36 10° S 19:46:40 71° E 19:52:48 10° NNE
Meteor 1-21 Rocket 4.3 19:42:09 10° N 19:47:52 75° E 19:53:39 10° SSE
CSL-04 Rocket 3.9 19:42:35 10° SSE 19:48:00 58° ENE 19:53:27 10° N
BREEZE-M DEB (TANK) 4.4 19:49:13 10° NW 19:50:57 18° N 19:53:13 10° NE
Cosmos 1346 Rocket 4.2 19:50:47 10° NNE 19:53:17 18° ENE 19:55:10 13° ESE
Cosmos 1809 Rocket 4.5 19:48:31 10° N 19:54:42 72° E 20:00:51 10° SSE
SL-4 R/B 3.3 19:52:20 10° S 19:54:56 18° SE 19:57:34 10° E
Cosmos 1400 Rocket 2.6 19:52:12 10° S 19:55:41 53° E 19:59:14 10° NNE
OAO 3 Rocket 3.8 19:51:25 10° WSW 19:55:43 39° S 19:59:27 13° ESE
BREEZE-M DEB (TANK) 3.9 19:52:32 10° S 19:55:45 29° ESE 20:03:18 10° ENE
Cosmos 1812 1.8 19:56:45 22° ESE 19:56:59 23° E 19:58:23 10° NE
Meteor 1-31 Rocket 2.7 19:55:57 10° SSE 19:59:23 51° ENE 20:02:49 10° N
SL-24 R/B 4.5 19:54:57 10° NNE 20:00:14 61° E 20:04:54 10° S
Gbstr 26 Del rocket 4.4 19:57:19 10° S 20:01:48 25° SE 20:05:41 10° E
Cosmos 1943 Rocket 3.2 19:57:11 10° NW 20:02:36 47° WSW 20:07:56 10° S
USA 59 Rocket 0.1 20:00:28 10° NNW 20:03:59 57° NE 20:07:46 15° SE
Feng Yun 1-1 Rocket 4.5 20:00:10 10° SE 20:05:27 51° ENE 20:10:41 10° N
ADEOS 4.2 20:06:33 14° SE 20:10:33 38° ENE 20:15:20 10° N
Cosmos 2369 Rocket 3.5 20:07:17 10° N 20:11:46 24° NE 20:14:59 15° E
Aureole 3 4.2 20:07:52 10° N 20:13:13 73° E 20:19:27 10° SSE
RESURS DK-1 3.9 20:10:34 10° SW 20:14:15 38° WNW 20:17:58 10° N
MOS 1 4.5 20:10:24 11° SSE 20:15:37 55° ENE 20:21:09 10° N
SL-08 R/B 3.9 20:12:09 10° NNE 20:16:41 36° E 20:21:09 10° SSE
Cosmos 2285 Rocket 4.3 20:11:56 10° S 20:17:53 44° ESE 20:23:49 10° NNE
USA 234 3.2 20:16:06 10° NE 20:22:37 66° SE 20:29:07 10° SW
Meteor 1-11 4.2 20:18:28 10° N 20:23:59 88° W 20:29:30 10° S
SKYMED 3 4.5 20:20:50 10° NNE 20:24:37 48° E 20:28:01 12° S
Cosmos 1943 4.3 20:23:24 20° ESE 20:24:51 22° E 20:29:06 10° NE
USA 32 4.3 20:20:27 10° S 20:25:39 72° W 20:30:54 10° N
Molniya-1 2.7 20:23:43 10° SSW 20:26:07 61° ESE 20:30:00 10° NE
Meteor 2-21 4.5 20:20:03 10° N 20:26:15 89° W 20:32:27 10° S
CZ-4B DEB 4.2 20:22:06 10° SSE 20:27:31 83° ENE 20:33:02 10° NNW
CZ-4B R/B 3.4 20:23:41 16° SSE 20:28:04 60° ENE 20:33:38 10° N
HBTSS-SV1 4.4 20:24:31 10° W 20:28:57 77° S 20:31:41 23° E
Cosmos 614 Rocket 4.2 20:24:24 10° NNW 20:29:31 69° WSW 20:34:17 12° S
Cosmos 2278 Rocket 3.7 20:24:28 10° NW 20:29:33 35° WSW 20:34:36 10° SSW
SL-8 R/B 4.3 20:25:19 10° WSW 20:29:58 57° NNW 20:34:38 10° ENE
OAO 2 Rocket 3.8 20:27:37 10° WSW 20:32:29 43° S 20:34:49 26° SE
ERS-1 Rocket 2.9 20:33:53 17° SSE 20:37:49 83° ENE 20:42:50 10° NNW
SL-24 R/B 4.1 20:35:37 10° NNE 20:40:14 85° WNW 20:44:28 10° SSW
Cosmos 1674 Rocket 3.4 20:38:15 10° N 20:42:36 87° ENE 20:45:17 23° S
NOSS 2-1 (D) 3.6 20:39:49 10° NW 20:43:27 68° SW 20:45:49 27° SSE
Okean-O 3.2 20:44:32 33° ESE 20:45:41 39° ENE 20:49:46 10° N
Cosmos 2292 Rocket 2.9 20:42:13 10° N 20:46:13 69° E 20:47:05 46° SSE
Cosmos 2298 Rocket 3.9 20:41:31 10° S 20:46:47 73° ESE 20:52:06 10° NNE
Cosmos 44 3.9 20:43:06 10° SW 20:48:03 62° NW 20:53:18 10° NNE
Cosmos 1908 Rocket 3.4 20:45:39 21° S 20:48:27 70° E 20:52:45 10° NNE
NOSS 2-1 (E) 3.4 20:48:07 10° NW 20:51:43 76° WSW 20:53:26 36° SSE
MetOp-B 4.1 20:48:53 20° S 20:52:41 83° WSW 20:58:04 10° NNW
Okean O Rocket 1.8 20:53:05 41° ESE 20:54:07 51° ENE 20:58:19 10° N
IRS-1A Rocket 4.2 20:51:42 27° SSE 20:54:54 77° ENE 21:00:38 10° N
BREEZE-M DEB (TANK) 3.3 20:49:51 10° WNW 20:55:49 62° SW 20:56:25 50° S
CZ-4 R/B 2.9 20:53:51 10° SSW 20:57:10 30° W 21:00:27 10° NW
SL-16 R/B 2.4 20:51:47 10° SSW 20:57:24 72° WNW 21:03:06 10° NNE
SL-08 R/B 4.3 20:51:25 10° S 20:57:33 83° E 21:03:41 10° N
NOSS 2-1 (C) 3.8 20:54:09 10° NW 20:57:45 57° WSW 20:59:31 33° S
Ariane Rocket 4.3 20:57:13 23° ENE 20:57:52 23° ENE 21:01:46 10° NNE
Cosmos 1782 Rocket 3.8 20:58:38 43° E 20:58:42 43° E 21:02:46 10° NNE
Cosmos 1934 Rocket 3.9 20:54:46 18° S 20:59:29 68° E 21:05:38 10° NNE
Cosmos 1727 Rocket 4.3 20:54:01 10° NNW 21:00:18 68° W 21:05:49 14° S
Geosat 3.9 20:58:17 10° NNE 21:03:19 84° ESE 21:08:19 10° SSW
Dummy Sat-01 4.4 21:03:48 62° S 21:04:22 89° ENE 21:08:01 10° N
Spot 2 Rocket 3.4 21:03:20 41° SE 21:05:02 71° ENE 21:10:02 10° N
USA 245 4.5 21:05:18 37° E 21:06:02 39° ENE 21:11:02 10° N
MOS 1-B 4.3 21:06:46 37° SSE 21:09:09 74° ENE 21:14:56 10° N
ATLAS CENTAUR Rocket 4.0 21:08:02 10° SW 21:09:38 12° SSW 21:09:38 12° SSW
Cosmos 1025 Rocket 3.7 21:07:02 10° NNW 21:11:11 51° W 21:13:11 27° SSW
Cosmos 1140 Rocket 4.1 21:07:28 10° N 21:12:12 36° ENE 21:12:46 35° ENE
Terra 2.6 21:10:47 22° SSW 21:13:31 48° W 21:18:04 10° NNW
Cosmos 1656 Rocket 4.3 21:10:42 10° NW 21:15:58 50° WSW 21:18:44 27° SSW
NOSS 3-1 (C) 4.2 21:12:11 10° NNW 21:19:24 67° NE 21:23:02 38° ESE
Cosmos 1300 Rocket 3.6 21:25:03 55° SW 21:25:53 73° W 21:30:10 10° N
Cosmos 1346 Rocket 4.5 21:25:23 10° NW 21:28:22 25° W 21:29:27 21° WSW
Cosmos 2123 Rocket 4.1 21:22:39 10° N 21:28:57 75° W 21:31:51 34° S
Cosmos 2058 4.4 21:25:30 10° NNE 21:27:31 23° NE 21:27:31 23° NE
SL-4 R/B 2.4 21:28:09 10° WSW 21:31:15 52° W 21:31:15 52° W
Cosmos 1869 4.5 21:39:45 33° W 21:39:59 34° WNW 21:43:16 10° N
COSMOS 2455 3.7 21:34:57 10° NNW 21:40:26 35° NE 21:41:17 34° ENE
ASTEX 1 4.3 21:39:06 32° SW 21:40:54 45° W 21:45:38 10° NNW
SJ 16-02 3.6 21:39:07 10° NNE 21:40:32 14° NE 21:40:32 14° NE
Cosmos 1315 Rocket 3.8 21:43:33 41° N 21:43:33 41° N 21:46:09 10° N
Cosmos 1535 Rocket 4.4 21:45:14 49° SSW 21:47:02 85° W 21:53:14 10° N
Gbstr 26 Del rocket 3.4 21:42:49 10° WSW 21:48:01 67° NW 21:48:41 58° NNE
SPOT 3 Rocket 3.4 21:48:50 85° SE 21:48:57 87° E 21:54:09 10° NNW
Cosmos 1605 Rocket 3.8 21:47:33 55° S 21:49:02 88° W 21:55:12 10° N
Cosmos 2297 3.8 21:46:13 10° NNW 21:51:54 64° WSW 21:52:39 58° SSW
USA 59 Rocket 2.6 21:50:28 10° W 21:52:34 13° WSW 21:53:19 13° SW
Cosmos 2369 Rocket 2.6 21:50:39 10° NNW 21:56:03 51° WSW 21:56:46 48° SW
Milstar 3 4.4 21:52:36 10° SW 22:15:15 10° E 21:58:13 33° S
USA 234 4.4 21:59:19 10° NE 22:05:24 42° NNW 22:11:28 10° W
Cosmos 1603 4.2 22:07:59 49° NE 22:07:59 49° NE 22:12:11 10° NNE
Cosmos 921 Rocket 4.1 22:03:43 10° NNW 22:06:41 42° N 22:06:41 42° N
Cosmos 1943 3.9 22:04:58 22° SW 22:08:26 52° WNW 22:13:58 10° NNE
IRS-1C Rocket 4.2 22:12:44 69° WNW 22:12:44 69° WNW 22:17:41 10° NNW
Cosmos 1975 Rocket 4.2 22:09:39 10° NNW 22:13:00 42° NW 22:13:00 42° NW
NOSS 3-1 (A) 4.1 22:11:53 10° NNW 22:19:15 72° NE 22:20:42 61° ESE
Cosmos 2100 Rocket 4.3 22:26:44 54° NE 22:26:44 54° NE 22:31:44 10° NNE
Okean O Rocket 4.1 22:30:19 14° W 22:30:34 14° W 22:32:50 10° WNW
Ariane Rocket 4.1 22:37:17 39° WNW 22:37:17 39° WNW 22:41:13 10° NNW
ATLAS 5 CENTAUR R/B 3.5 22:48:08 10° NNW 22:50:11 27° NNW 22:50:11 27° NNW
Cosmos 1459 Rocket 4.5 23:11:18 57° NW 23:11:18 57° NW 23:16:42 10° N
SJ 16-02 3.9 23:15:53 10° NNW 23:17:01 18° NW 23:17:01 18° NW
ATLAS 2AS CENTAUR R/B 3.4 23:25:29 44° NE 23:25:29 44° NE 23:29:56 10° NE
COSMOS 2455 4.2 23:20:49 10° NW 23:24:25 31° WNW 23:24:25 31° WNW
SeaSat 1 4.2 23:36:18 29° NNW 23:36:18 29° NNW 23:38:40 10° NNW
Cosmos 1697 Rocket 4.1 23:43:42 10° NNW 23:47:06 35° N 23:47:06 35° N
